Simultaneous Nadir Overpasses (SNOs) Predictions

Prediction of SNOs between AQUA and NOAA-19 Satellite Orbit:

Table of predicted SNOs for the next 14.0 days since TLE Epoch: 1/8/2018
Index Date (AQUA) Time (AQUA) Lat,Lon (AQUA) SZA (AQUA ) Date (NOAA-19) Time (NOAA-19) Lat,Lon (NOAA-19) SZA (NOAA-19 ) Distance(km) Time Diff (sec)
1 01/09/2018 06:48:26 -80.87,-141.71 74.91 01/09/2018 06:47:22 -80.89,-141.57 74.89 2.76 64
2 01/09/2018 07:37:54 80.89, 25.66 105.13 01/09/2018 07:38:19 80.89, 25.77 105.11 2.09 25
3 01/11/2018 12:22:12 80.89, -45.35 104.82 01/11/2018 12:21:01 80.88, -45.52 104.86 3.23 71
4 01/11/2018 13:11:38 -80.89, 122.26 75.19 01/11/2018 13:12:04 -80.89, 122.31 75.21 1.15 26
5 01/13/2018 17:55:56 -80.89, 51.23 75.54 01/13/2018 17:54:46 -80.88, 51.16 75.51 1.69 70
6 01/13/2018 18:45:23 80.89,-141.09 104.46 01/13/2018 18:45:41 80.89,-141.09 104.45 0.11 18
7 01/16/2018 00:19:07 -80.89, -44.52 75.93 01/16/2018 00:19:27 -80.88, -44.66 75.93 2.48 20
8 01/18/2018 05:52:52 80.89, 52.04 103.66 01/18/2018 05:53:03 80.88, 51.96 103.66 1.50 11




NCC Satellite Simultaneous Nadir Overpasses (SNOs) Prediction Service
